Flag for Malta Weather past 2 weeks in Valletta, Malta

Now
77 °F

Clear.


Feels Like: 78 °F
Forecast: 72 / 87 °F
Wind: 5 mph from West

Location: Luqa

Current Time: Aug 29, 2014 at 3:39:07 AM

Latest Report: Aug 29, 2014 at 2:45 AM


Visibility: 10 mi

Pressure: 29.92 "Hg

Humidity: 83%

Dew point: 72 °F

Location of VallettaLocation

Historic Weather in Valletta — Graph

°F

Valletta temperature yesterday

Maximum temperature yesterday: 91 °F (at 1:45 PM)
Minimum temperature yesterday: 73 °F (at 4:15 AM)
Average temperature yesterday: 82 °F

Past Weeks' High & Low Weather Summary

 TemperatureHumidityPressure
High93 °F (Aug 14, 3:45 PM)100% (Aug 22, 3:15 AM)30.04 "Hg (Aug 22, 3:15 AM)
Low70 °F (Aug 18, 4:45 AM)16% (Aug 27, 3:15 PM)29.86 "Hg (Aug 14, 2:15 AM)
Average81 °F68%29.97 "Hg
* Reported Aug 14 2:15 AM — Aug 29 2:15 AM, Valletta, Weather by CustomWeather, © 2014

Note: Actual official high and low records may vary slightly from our data, if they occured in-between our weather recording intervals... More about our weather records

Advertising

Valletta weather history for previous 24 hours

 ConditionsComfort  
Time TempWeatherWind HumidityBarometerVisibility
2:15 AM
Aug 29
77 °FClear.6 mph83%29.92 "Hg10 mi
1:45 AM77 °FClear.2 mph74%29.92 "Hg10 mi
1:15 AM77 °FClear.2 mph79%29.92 "Hg10 mi
12:45 AM79 °FClear.6 mph79%29.92 "Hg10 mi
12:15 AM81 °FPassing clouds.6 mph66%29.92 "HgN/A
11:45 PM
Aug 28
81 °FClear.6 mph48%29.92 "Hg10 mi
11:15 PM81 °FClear.6 mph62%29.92 "Hg10 mi
10:45 PM79 °FClear.2 mph61%29.95 "Hg10 mi
10:15 PM81 °FClear.1 mph62%29.95 "Hg10 mi
9:45 PM81 °FPassing clouds.1 mph62%29.95 "HgN/A
9:15 PM81 °FPassing clouds.1 mph66%29.92 "HgN/A
8:45 PM82 °FClear.2 mph62%29.92 "Hg10 mi
8:15 PM82 °FSunny.3 mph62%29.92 "Hg10 mi
7:45 PM84 °FPassing clouds.5 mph51%29.92 "HgN/A
7:15 PM84 °FSunny.7 mph48%29.92 "Hg10 mi
6:45 PM86 °FPassing clouds.6 mph43%29.92 "HgN/A
6:15 PM88 °FSunny.9 mph40%29.92 "Hg10 mi
5:45 PM90 °FPassing clouds.7 mph38%29.92 "HgN/A
5:15 PM90 °FPassing clouds.6 mph31%29.92 "HgN/A
4:45 PM90 °FPassing clouds.7 mph31%29.89 "HgN/A
4:15 PM90 °FSunny.6 mph33%29.92 "Hg10 mi
3:45 PM91 °FPassing clouds.8 mph32%29.92 "HgN/A
3:15 PM91 °FPassing clouds.7 mph28%29.92 "HgN/A
2:45 PM91 °FPassing clouds.8 mph28%29.92 "HgN/A
2:15 PM91 °FPassing clouds.8 mph26%29.92 "HgN/A
1:45 PM91 °FPassing clouds.8 mph28%29.92 "HgN/A
1:15 PM90 °FPassing clouds.8 mph36%29.92 "HgN/A
12:45 PM90 °FPassing clouds.7 mph46%29.92 "HgN/A
12:15 PM90 °FPassing clouds.6 mph46%29.92 "HgN/A
11:45 AM88 °FSunny.5 mph52%29.92 "Hg10 mi
11:15 AM88 °FPassing clouds.8 mph55%29.92 "HgN/A
10:45 AM88 °FPassing clouds.5 mph52%29.92 "HgN/A
10:15 AM88 °FSunny.3 mph49%29.92 "Hg10 mi
9:45 AM84 °FPassing clouds.3 mph55%29.92 "HgN/A
9:15 AM82 °FPassing clouds.3 mph66%29.92 "HgN/A
8:45 AM81 °FPassing clouds.7 mph74%29.89 "HgN/A
8:15 AM79 °FPassing clouds.6 mph79%29.89 "HgN/A
7:45 AM77 °FPassing clouds.5 mph83%29.89 "HgN/A
7:15 AM73 °FPassing clouds.3 mph83%29.89 "HgN/A
6:45 AM73 °FClear.6 mph83%29.89 "Hg10 mi
6:15 AM75 °FClear.5 mph74%29.89 "Hg10 mi
5:45 AM73 °FClear.6 mph78%29.89 "Hg10 mi
5:15 AM75 °FClear.3 mph65%29.89 "Hg10 mi
4:45 AM73 °FClear.5 mph69%29.89 "Hg10 mi
4:15 AM73 °FClear.5 mph69%29.89 "Hg10 mi
3:45 AM75 °FClear.3 mph65%29.89 "Hg10 mi
3:15 AM77 °FPassing clouds.5 mph61%29.89 "HgN/A
Weather by CustomWeather, © 2014

See weather overviewHow to use our weather pages